Wind_Speed
4 4 3 2 2 2 2 1 1 1 1 1 1 1 1 1 1 1 2 2 2 1 1 1 1 1 1 2 2 2 2 2 2 2 1 1 1 1 0 0 0 1 1
6 5 4 3 3 3 3 2 2 2 2 1 1 1 1 1 2 2 2 2 2 1 0 0 0 0 1 1 1 1 1 1 1 1 1 1 1 1 1 0 1 1 2
7 6 5 5 5 4 4 3 3 2 2 2 1 1 1 1 1 1 1 2 2 2 1 1 0 0 0 0 1 1 1 1 1 1 1 1 1 1 1 1 1 2 2
8 8 7 7 6 5 5 5 4 3 3 2 2 1 1 1 1 1 1 1 2 2 2 1 1 1 1 1 1 1 1 1 1 2 2 2 2 2 2 2 2 2 2
10 9 9 9 8 7 6 6 5 4 4 3 3 2 1 1 1 1 0 1 1 1 1 1 1 1 1 1 1 1 1 2 2 2 2 2 2 2 2 3 3 3 3
12 11 10 10 10 8 8 7 6 5 5 4 4 4 3 2 2 1 1 0 0 1 1 1 2 2 2 2 2 2 2 3 3 2 2 3 3 3 3 3 4 4 4
13 13 12 12 10 9 9 8 7 6 6 5 5 5 4 3 3 2 2 1 1 1 2 2 2 3 3 3 3 3 3 3 3 3 3 4 4 4 4 4 5 5 5
14 14 14 13 12 10 10 9 9 8 8 7 6 6 6 5 4 3 3 3 3 3 3 3 3 3 3 3 3 3 3 3 3 4 4 4 5 5 6 6 6 6 6
15 14 15 15 14 13 12 11 11 10 10 9 8 8 8 7 6 5 4 4 4 4 5 5 4 4 4 4 4 5 5 5 5 5 5 5 6 6 7 7 8 8 8
16 16 16 16 15 15 14 14 13 13 12 11 10 10 10 9 8 7 6 6 6 7 7 6 6 5 5 6 6 6 6 6 6 6 7 7 7 8 9 9 10 10 10
16 16 16 16 17 17 16 16 16 15 14 13 12 12 11 11 10 10 9 8 9 9 9 8 8 8 8 8 8 9 9 9 9 9 10 10 10 11 11 12 12 13 13
16 16 16 17 17 17 17 17 17 16 15 15 14 13 13 13 12 12 12 11 11 11 11 10 10 10 10 11 11 11 12 12 12 13 13 14 14 14 15 15 16 16 16
16 16 16 17 17 18 18 18 18 17 17 16 16 15 15 15 15 15 14 13 13 13 13 13 13 13 13 13 14 14 15 15 16 16 17 17 17 18 18 18 18 19 20
16 16 17 17 18 19 19 19 18 18 17 17 17 18 17 17 17 17 17 16 15 15 15 15 16 16 16 16 17 17 18 19 19 19 20 20 21 21 21 21 22 22 23
15 16 17 18 18 19 19 19 19 19 19 19 19 19 19 19 19 19 19 19 19 18 18 19 19 19 19 19 19 20 20 21 22 22 23 23 23 24 24 25 25 26 27
16 17 18 19 20 20 20 20 20 20 21 20 20 20 20 21 21 21 21 21 21 21 21 22 21 21 21 21 21 22 22 23 24 25 26 26 26 27 28 28 29 30 31
15 17 18 19 19 20 21 22 22 21 21 21 22 22 22 23 23 22 22 23 23 23 24 24 24 24 24 24 24 24 25 25 26 27 28 28 29 30 31 31 32 33 33
16 16 17 18 19 20 21 22 22 22 22 22 23 23 23 23 24 24 24 24 25 25 25 25 26 26 26 27 27 27 27 28 29 30 31 31 32 33 33 34 34 34 34
16 17 18 18 19 19 20 21 22 23 23 23 23 24 24 24 25 25 25 26 27 27 27 28 29 29 28 28 29 29 29 30 31 31 31 32 32 33 34 34 34 35 36
16 17 17 18 19 19 21 22 22 22 23 23 24 24 25 25 25 25 26 27 28 28 29 29 29 29 29 30 30 30 31 31 32 33 33 33 34 35 35 35 35 37 38
15 15 17 17 18 19 20 21 22 22 23 23 24 24 24 25 25 26 26 27 28 28 29 29 29 30 30 30 30 31 32 33 34 35 35 34 36 36 36 36 37 38 39
16 16 17 18 18 18 19 21 21 21 22 23 23 24 24 26 25 25 25 26 28 28 28 28 29 30 30 31 32 32 33 34 35 36 37 37 39 39 39 39 38 40 42
16 17 18 18 18 18 19 20 21 22 23 24 25 25 25 25 25 26 26 26 27 27 28 29 30 31 32 32 33 34 35 36 37 38 39 39 39 40 40 40 41 42 43
17 17 17 18 18 18 19 19 20 21 21 22 24 25 25 26 26 25 25 26 27 28 28 30 31 32 33 34 35 35 36 36 37 38 39 40 40 41 42 42 43 44 46
17 18 18 18 18 19 18 19 20 20 21 21 22 23 23 23 23 23 25 26 27 28 29 31 32 33 34 34 35 36 37 39 40 40 41 42 43 43 44 45 46 47 47
19 19 19 18 19 19 20 21 21 21 22 23 23 23 23 22 23 24 25 27 28 29 30 31 32 33 33 35 36 37 39 41 42 43 44 44 45 45 45 46 47 47 46
Wind_Direction
254 258 254 259 277 278 276 258 278 289 316 327 319 347 14 73 47 32 28 28 43 78 89 97 106 105 97 60 58 58 62 62 53 56 62 59 45 42 47 23 10 334 331
259 267 269 267 273 274 273 266 261 273 284 300 342 9 35 54 46 34 30 35 42 52 56 142 114 124 145 70 52 54 61 58 56 47 39 24 19 15 16 343 331 327 321
261 270 269 269 271 268 266 267 263 267 273 279 297 345 24 63 64 46 39 32 36 41 42 83 104 61 17 334 336 350 20 18 2 350 338 326 325 327 329 315 314 331 328
261 265 269 272 270 265 260 264 267 264 268 273 267 274 324 21 44 60 64 49 42 37 41 55 31 357 333 330 324 306 293 305 307 306 304 310 309 304 303 298 308 317 320
262 266 266 268 264 263 258 262 262 264 266 267 262 255 262 298 347 42 84 88 38 16 2 347 328 326 327 312 306 291 290 293 292 291 292 298 306 303 299 296 300 304 304
262 265 265 265 259 259 256 259 256 261 263 264 259 253 253 259 285 308 332 10 20 10 360 332 319 312 314 310 296 281 287 290 285 283 292 293 296 300 298 295 295 297 300
259 261 261 261 260 257 256 253 253 258 259 259 258 257 257 261 267 268 275 276 290 313 333 322 308 302 300 303 298 292 288 292 281 279 290 292 293 294 294 292 293 293 296
259 259 257 256 257 255 251 251 254 255 256 255 255 254 258 262 264 261 262 271 284 297 311 319 308 295 286 288 285 284 284 281 278 279 287 292 292 291 291 288 286 288 292
257 258 256 254 253 253 251 250 251 252 254 256 259 259 259 260 257 256 261 270 276 285 293 304 303 291 283 286 282 279 280 282 281 280 284 288 291 288 288 285 283 284 286
254 253 253 250 251 251 252 252 253 255 255 257 261 263 263 261 258 257 260 268 273 277 281 283 285 285 280 278 280 282 279 279 277 279 282 284 288 290 290 287 283 283 284
253 249 251 249 249 250 251 251 254 256 256 258 262 264 263 261 259 261 265 269 273 277 277 275 275 278 279 278 279 280 277 277 277 279 282 283 284 286 287 285 282 282 283
252 248 250 250 249 249 251 252 254 256 258 258 261 262 261 261 263 264 267 268 271 276 278 278 277 278 279 278 277 276 275 276 277 278 280 281 282 285 284 283 281 282 283
255 249 251 250 247 247 251 252 255 258 258 258 261 261 262 262 264 267 270 270 270 273 275 277 279 279 279 278 277 276 276 276 276 278 279 280 281 282 283 281 280 281 282
255 251 250 249 247 249 252 253 255 256 258 259 261 262 262 263 264 266 270 271 271 272 275 276 275 276 277 278 278 278 278 278 278 278 279 280 282 282 282 280 281 281 281
257 253 251 248 249 251 252 252 254 257 259 259 259 261 263 265 266 268 270 272 272 272 275 277 276 275 278 279 279 278 278 278 277 279 280 280 281 281 282 281 281 281 281
260 257 256 250 250 253 253 253 254 257 260 259 259 261 264 266 267 267 269 272 273 275 277 278 277 276 278 279 279 279 278 278 280 280 280 280 281 281 282 281 281 281 281
261 258 256 253 253 254 255 254 256 258 259 259 260 261 264 266 266 268 268 270 271 273 275 275 276 276 277 278 277 277 277 279 280 280 281 281 282 283 282 281 280 281 281
263 260 259 257 258 258 257 256 256 259 260 260 262 263 264 267 267 268 268 268 269 271 273 275 276 277 279 279 279 279 279 280 280 280 282 282 282 281 282 282 281 281 281
267 263 263 262 262 260 258 256 256 259 260 262 262 265 266 267 269 268 268 269 269 271 273 276 277 278 279 280 281 283 283 284 283 282 281 281 282 282 282 282 282 281 281
267 264 266 266 264 262 262 260 258 260 261 262 263 265 266 268 268 267 270 271 273 274 275 276 276 277 279 280 282 283 284 285 286 285 285 284 284 285 284 284 284 284 283
271 271 270 272 267 263 264 264 264 264 263 264 264 266 268 269 270 271 273 273 274 277 279 279 279 279 279 280 281 283 283 285 286 287 286 286 288 289 286 285 284 283 283
272 273 276 276 273 268 266 266 266 266 265 265 266 268 269 270 272 274 274 275 276 278 279 280 282 281 281 281 282 283 284 285 286 287 287 287 287 286 287 286 284 283 282
276 276 277 277 276 273 271 270 271 271 269 267 267 269 269 271 274 273 273 275 278 280 281 282 282 282 283 283 284 284 285 286 286 287 287 287 286 287 287 286 285 284 283
279 279 279 277 278 278 277 276 275 276 276 276 273 272 273 274 274 274 275 278 280 281 281 282 283 283 285 286 286 287 288 287 287 287 287 287 287 286 286 287 287 287 286
282 281 278 278 279 280 279 280 280 280 281 281 283 282 281 279 279 280 280 281 283 284 285 285 285 286 287 288 289 290 291 290 290 289 289 289 288 288 287 288 288 288 287
280 280 278 278 281 282 281 281 281 282 283 284 284 284 285 284 282 282 284 286 288 289 288 289 291 291 290 290 291 292 293 293 293 292 291 290 289 288 288 288 288 287 287
Height
5898 5898 5899 5899 5899 5899 5900 5900 5900 5900 5900 5900 5900 5900 5900 5900 5899 5899 5900 5900 5900 5901 5901 5901 5902 5902 5903 5903 5904 5904 5904 5904 5905 5905 5905 5906 5906 5906 5906 5907 5907 5907 5907
5898 5898 5899 5899 5899 5900 5900 5900 5900 5900 5900 5900 5900 5900 5900 5900 5900 5899 5900 5900 5901 5901 5901 5902 5902 5903 5903 5903 5904 5904 5904 5905 5905 5905 5905 5906 5906 5906 5906 5906 5907 5907 5907
5897 5898 5898 5899 5899 5899 5900 5900 5900 5900 5900 5900 5900 5900 5900 5900 5900 5900 5900 5901 5901 5901 5901 5902 5902 5903 5903 5903 5904 5904 5904 5904 5905 5905 5905 5905 5905 5906 5906 5906 5906 5906 5906
5896 5897 5898 5898 5899 5899 5899 5899 5900 5900 5900 5900 5900 5900 5900 5900 5900 5900 5900 5901 5901 5901 5901 5902 5902 5902 5903 5903 5903 5903 5904 5904 5904 5904 5904 5905 5905 5905 5905 5905 5905 5905 5905
5894 5895 5896 5897 5898 5898 5899 5899 5899 5899 5899 5900 5900 5900 5900 5900 5900 5900 5901 5901 5901 5902 5902 5902 5902 5902 5902 5902 5903 5903 5903 5903 5903 5903 5904 5904 5904 5904 5904 5904 5904 5904 5904
5893 5894 5895 5896 5896 5897 5898 5898 5898 5898 5899 5899 5900 5900 5900 5900 5900 5901 5901 5901 5901 5901 5901 5901 5901 5901 5902 5902 5902 5902 5902 5902 5902 5903 5903 5903 5903 5903 5903 5903 5903 5903 5903
5890 5891 5893 5894 5895 5896 5896 5897 5897 5898 5898 5898 5899 5899 5899 5900 5900 5900 5900 5901 5901 5901 5901 5901 5901 5901 5901 5901 5901 5901 5901 5901 5902 5902 5902 5902 5902 5902 5902 5902 5902 5901 5901
5888 5889 5890 5891 5892 5893 5894 5895 5896 5896 5897 5897 5898 5898 5899 5899 5899 5900 5900 5900 5900 5900 5900 5900 5900 5900 5900 5900 5900 5901 5901 5900 5900 5901 5901 5901 5900 5900 5900 5900 5900 5900 5899
5884 5886 5887 5888 5890 5891 5892 5893 5894 5895 5895 5896 5896 5897 5897 5898 5898 5899 5899 5899 5899 5899 5899 5899 5899 5899 5899 5899 5899 5899 5899 5899 5899 5899 5899 5899 5899 5899 5898 5898 5898 5898 5897
5881 5882 5883 5885 5887 5888 5890 5891 5891 5892 5893 5894 5894 5895 5896 5896 5896 5897 5897 5897 5897 5897 5897 5897 5897 5897 5898 5898 5898 5898 5898 5898 5898 5898 5898 5897 5897 5897 5896 5896 5896 5895 5895
5877 5878 5880 5881 5883 5885 5887 5888 5889 5889 5890 5891 5892 5892 5893 5893 5894 5895 5895 5896 5896 5895 5895 5895 5895 5896 5896 5896 5896 5896 5896 5896 5896 5896 5895 5895 5895 5894 5894 5893 5893 5892 5892
5873 5875 5876 5878 5880 5882 5883 5884 5885 5886 5887 5888 5888 5889 5890 5891 5892 5892 5893 5893 5893 5893 5893 5893 5893 5893 5893 5893 5893 5893 5893 5893 5893 5893 5892 5892 5891 5891 5890 5890 5889 5889 5888
5870 5871 5873 5874 5876 5878 5879 5881 5882 5883 5883 5884 5885 5886 5887 5888 5888 5889 5890 5890 5890 5890 5890 5891 5890 5890 5890 5890 5890 5890 5890 5890 5889 5889 5889 5888 5887 5887 5886 5885 5885 5884 5883
5866 5867 5869 5870 5872 5874 5876 5877 5878 5879 5879 5880 5881 5883 5883 5884 5885 5885 5886 5886 5886 5887 5887 5887 5887 5887 5887 5886 5886 5886 5886 5885 5885 5884 5884 5883 5882 5882 5881 5880 5879 5879 5878
5862 5864 5865 5867 5868 5870 5871 5873 5874 5875 5876 5876 5877 5878 5879 5880 5880 5881 5881 5882 5883 5882 5883 5883 5883 5882 5882 5882 5881 5881 5880 5880 5879 5879 5878 5877 5877 5876 5875 5874 5873 5872 5871
5859 5860 5861 5863 5864 5866 5867 5868 5869 5870 5871 5872 5873 5874 5875 5875 5876 5876 5876 5877 5877 5878 5878 5878 5877 5877 5877 5876 5876 5875 5875 5874 5874 5873 5872 5871 5870 5869 5868 5867 5866 5865 5863
5855 5856 5857 5858 5860 5861 5862 5863 5864 5865 5866 5867 5868 5869 5869 5870 5870 5871 5871 5871 5872 5872 5872 5872 5871 5871 5870 5870 5869 5869 5868 5868 5867 5866 5865 5864 5863 5862 5860 5859 5858 5857 5855
5852 5852 5853 5854 5856 5857 5857 5858 5859 5860 5861 5862 5863 5863 5864 5864 5864 5865 5865 5865 5866 5866 5866 5865 5865 5864 5864 5863 5862 5862 5861 5861 5860 5859 5857 5856 5854 5853 5852 5850 5849 5847 5846
5848 5849 5849 5850 5851 5852 5852 5853 5854 5855 5856 5857 5857 5858 5858 5858 5859 5859 5859 5859 5859 5859 5859 5859 5858 5857 5857 5856 5855 5854 5853 5852 5851 5850 5849 5848 5846 5844 5842 5841 5839 5838 5836
5844 5845 5845 5846 5846 5846 5847 5848 5848 5849 5850 5851 5851 5852 5852 5852 5852 5852 5852 5852 5852 5852 5851 5851 5851 5850 5849 5848 5848 5847 5845 5844 5843 5841 5840 5838 5836 5834 5833 5831 5830 5828 5826
5841 5841 5841 5841 5841 5841 5842 5842 5843 5843 5844 5845 5845 5846 5846 5846 5846 5846 5845 5845 5845 5844 5844 5843 5843 5842 5841 5840 5839 5838 5837 5836 5834 5832 5830 5828 5826 5825 5823 5821 5819 5817 5814
5837 5837 5837 5837 5836 5837 5837 5837 5837 5838 5838 5839 5839 5839 5840 5840 5840 5839 5839 5838 5837 5837 5836 5835 5835 5834 5833 5832 5830 5829 5827 5826 5824 5823 5820 5818 5816 5814 5812 5810 5808 5806 5803
5833 5833 5833 5833 5833 5832 5832 5832 5832 5833 5833 5833 5833 5833 5833 5833 5833 5832 5832 5831 5830 5829 5829 5828 5827 5826 5824 5823 5822 5820 5818 5816 5814 5812 5810 5808 5805 5802 5800 5798 5796 5793 5791
5829 5829 5829 5829 5829 5828 5828 5828 5828 5827 5827 5827 5827 5827 5827 5827 5826 5825 5825 5824 5823 5822 5821 5820 5819 5818 5816 5814 5812 5811 5808 5806 5804 5801 5799 5797 5794 5791 5788 5785 5783 5780 5777
5825 5825 5825 5825 5825 5824 5824 5824 5823 5823 5822 5822 5821 5821 5820 5820 5819 5818 5818 5817 5816 5815 5813 5812 5810 5808 5806 5804 5802 5800 5798 5795 5793 5790 5787 5784 5781 5778 5775 5772 5769 5765 5762
5821 5821 5821 5821 5821 5820 5820 5819 5819 5818 5818 5817 5816 5815 5814 5813 5812 5811 5811 5809 5808 5806 5805 5803 5801 5798 5796 5794 5792 5789 5786 5784 5781 5778 5774 5771 5768 5764 5762 5758 5754 5751 5747